Back to catalog

BREEZE-M DEB

TANK

AliveHEO
NORAD 35495·DEBRIS·🇷🇺 Russia

Launched Jun 30, 2009 from Baikonur Cosmodrome

Loading…

Next Passes (next 24 hours)

TLE

FreshSource: Space-Track

Epoch: Sep 14, 2026, 12:38 UTC

1 35495U 09034C   26257.52686868  .00002701  00000-0  46125-3 0  9994
2 35495  49.6096 297.4453 4880645 179.8172 180.5706  5.81714482348446

Track BREEZE-M DEB in real time with AllMySat

Download on the App Store